Miscellaneous Local Product
Issued by NWS Hastings, NE

Home | Current Version | Previous Version | Text Only | Print | Product List | Glossary On
Versions: 1 2 3 4 5 6 7 8 9 10 11 12 13 14 15 16 17 18 19 20 21 22 23 24 25 26 27 28 29 30 31 32 33 34 35 36 37 38 39 40 41 42 43 44 45 46 47 48 49 50
000
AXUS43 KGID 291402
MISGRI

GID CWA HOURLY WEATHER ROUNDUP
NATIONAL WEATHER SERVICE HASTINGS NE
900 AM CDT SUN MAR 29 2015

NOTE: "FAIR" INDICATES FEW OR NO CLOUDS BELOW 12,000 FEET WITH NO
SIGNIFICANT WEATHER AND/OR OBSTRUCTIONS TO VISIBILITY.

...SOUTH CENTRAL NEBRASKA...

CITY           SKY/WX    TMP DP  RH WIND       PRES   REMARKS
GRAND ISLAND   MOSUNNY   52  35  52 NW22G30   29.99R
HASTINGS       MOSUNNY   53  37  54 NW13      29.97R
KEARNEY        MOSUNNY   50  30  46 NW23G32   30.02R
ORD            SUNNY     53  33  46 NW30G43   29.98R
YORK           PTSUNNY   46  39  76 NW12      29.94R
AURORA         MOSUNNY   50  37  60 NW13      29.97R
LEXINGTON      SUNNY     48  28  45 NW22      30.04R
HOLDREGE       MOSUNNY   51  32  47 NW21      30.02R
HEBRON         CLOUDY    47  40  75 W5        29.97R

...NEBRASKA PANHANDLE...

CITY           SKY/WX    TMP DP  RH WIND       PRES   REMARKS
CHADRON        SUNNY     47  30  51 NW23G32   30.21R
ALLIANCE       SUNNY     46  28  49 NW30G47   30.17R
SCOTTSBLUFF    SUNNY     46  30  53 NW22G30   30.23R
SIDNEY         SUNNY     45  28  51 NW28G39   30.22R

...WESTERN AND NORTH CENTRAL NEBRASKA...

CITY           SKY/WX    TMP DP  RH WIND       PRES   REMARKS
VALENTINE      CLOUDY    47  35  63 NW32G46   30.06R
AINSWORTH      CLOUDY    49  33  55 NW36G52   30.05R
ONEILL         CLOUDY    50  37  62 NW30G36   29.95R
BROKEN BOW     SUNNY     52  34  50 NW29G43   30.03R
IMPERIAL         N/A     50  24  36 NW25G33   30.15R
NORTH PLATTE   SUNNY     51  27  39 NW21G30   30.10R
MCCOOK         MOSUNNY   56  23  27 NW25G33   30.09R

...EASTERN NEBRASKA...

CITY           SKY/WX    TMP DP  RH WIND       PRES   REMARKS
NORFOLK        PTSUNNY   54  35  48 NW26G35   29.88R
SO SIOUX CITY  MOSUNNY   51  36  56 W13       29.83S
TEKAMAH        CLOUDY    47  37  68 W12G20    29.88R
COLUMBUS       PTSUNNY   46  34  61 W13       29.94R
ALBION         MOSUNNY   53  32  45 NW23G32   29.94R
OMAHA EPPLEY   CLOUDY    44  36  73 S7        29.90R
OFFUTT AFB     CLOUDY    44  37  76 S5        29.90R
MILLARD        CLOUDY    44  37  76 CALM      29.90R
LINCOLN        CLOUDY    46  39  76 VRB5      29.94R
NEBRASKA CITY  CLOUDY    46  37  71 SW15      29.92R
BEATRICE       PTSUNNY   44  39  82 S7        29.95R
FALLS CITY     CLOUDY    45  38  76 SW6       29.96R

...NORTHERN KANSAS...

CITY           SKY/WX    TMP DP  RH WIND       PRES   REMARKS
GOODLAND       SUNNY     50  23  34 N28G37    30.16R
HILL CITY      MOSUNNY   56  30  37 NW21      30.06R
NORTON         SUNNY     55  19  24 NW20G26   30.07R
PHILLIPSBURG   SUNNY     57  37  47 W9        30.05R
SMITH CENTER   SUNNY     54  37  54 NW8       30.03R
BELOIT         SUNNY     46  39  76 CALM      29.99R
HAYS           MOSUNNY   57  36  44 N16       30.04R
RUSSELL        PTSUNNY   59  34  39 N18       30.00R
CONCORDIA      CLOUDY    48  42  80 W6        29.97R
SALINA         MOSUNNY   56  45  66 SW6       29.96R
TOPEKA         PTSUNNY   45  39  79 S10       29.97F



USA.gov is the U.S. government's official web portal to all federal, state and local government web resources and services.